Regional Weather Roundup
Issued by NWS

Home | Current Version | Previous Version | Text Only | Print | Product List | Glossary On
Versions: 1 2 3 4 5 6 7 8 9 10 11 12 13 14 15 16 17 18 19 20 21 22 23 24 25 26 27 28
000
ASUS45 KGTF 271710
RWRMT
MONTANA HOURLY WEATHER ROUNDUP
NATIONAL WEATHER SERVICE GREAT FALLS MT
1100 AM MDT MON APR 27 2015

NOTE: "FAIR" INDICATES FEW OR NO CLOUDS BELOW 12000 FEET WITH NO
SIGNIFICANT WEATHER AND/OR OBSTRUCTIONS TO VISIBILITY.

MTZ001>007-043-271800-
WEST OF THE DIVIDE

CITY           SKY/WX    TMP DP  RH WIND       PRES   REMARKS
KALISPELL      SUNNY     50  36  58 SE9       30.33F
MISSOULA       PTSUNNY   46  38  73 W5        30.39F
BUTTE          SUNNY     42  27  55 VRB3      30.35F
$$

MTZ008-052>055-271800-
SOUTHWEST MONTANA

CITY           SKY/WX    TMP DP  RH WIND       PRES   REMARKS
BOZEMAN        PTSUNNY   43  35  73 CALM      30.36F
DILLON         MOSUNNY   44  32  62 VRB5      30.35S
$$

MTZ009-010-012-014-046-048-049-054-271800-
EAST SLOPES AND CENTRAL MONTANA

CITY           SKY/WX    TMP DP  RH WIND       PRES   REMARKS
CUT BANK       SUNNY     55  19  24 S10       30.22S
GREAT FALLS    SUNNY     51  28  41 SW14      30.27F
HELENA         SUNNY     44  38  79 VRB5      30.33F
$$

MTZ011-013-016-021-045-047-050-051-271800-
NORTH CENTRAL MONTANA

CITY           SKY/WX    TMP DP  RH WIND       PRES   REMARKS
HAVRE          SUNNY     55  32  41 SW17      30.27F
LEWISTOWN      SUNNY     48  33  56 NW5       30.31S
$$

MTZ017>020-022>042-056>058-061-062-271800-
EASTERN PLAINS

CITY           SKY/WX    TMP DP  RH WIND       PRES   REMARKS
BAKER          CLOUDY    41  37  86 NW9       30.35R
BILLINGS       PTSUNNY   46  36  68 SW8       30.35S
GLASGOW        SUNNY     50  36  58 SW7       30.33F
JORDAN           N/A     48  35  60 VRB3      30.34S
LIVINGSTON     MOSUNNY   49  30  48 W14       30.33F
MILES CITY     CLOUDY    44  37  76 NW8       30.36S
SIDNEY         CLOUDY    46  37  71 W3        30.35F
WOLF POINT     CLOUDY    51  40  65 W9G18     30.35S
$$

REGIONAL REPORTS...DAKOTAS

CITY           SKY/WX    TMP DP  RH WIND       PRES   REMARKS
WILLISTON      CLOUDY    46  39  76 W6        30.34R
MINOT          LGT RAIN  44  40  85 NW10      30.30S
DICKINSON      LGT RAIN  43  39  86 NW9       30.31S
BEACH          CLOUDY    41  41 100 NW10      30.36R
CROSBY         CLOUDY    48  46  93 NW10      30.32S
WATFORD CITY   CLOUDY    43  39  87 NW5       30.32S
BISMARCK       CLOUDY    48  43  82 N14       30.29R
GRAND FORKS    CLOUDY    64  43  46 VRB3      30.22S
FARGO          MOSUNNY   67  26  21 W6        30.22F
BUFFALO SD       N/A     42  38  85 NW15      30.27R
RAPID CITY     CLOUDY    44  39  82 N20G29    30.30R
$$

REGIONAL REPORTS...WYOMING/IDAHO/WASHINGTON

CITY           SKY/WX    TMP DP  RH WIND       PRES   REMARKS
GILLETTE       CLOUDY    38  35  89 N9        30.34S WCI  31
SHERIDAN       MOSUNNY   44  37  76 CALM      30.35S
BUFFALO WY     CLOUDY    42  35  76 VRB6      30.34S
CODY           PTSUNNY   43  34  70 N3        30.34S
YELLOWSTONE LA   N/A     34  25  69 E6        30.34R WCI  29
IDAHO FALLS    MOSUNNY   49  29  46 N8        30.32S
SALMON         SUNNY     45  30  57 CALM      30.35F
BOISE          SUNNY     52  29  41 CALM      30.33S
SPOKANE        MOSUNNY   55  28  35 VRB3      30.34R
$$

REGIONAL REPORTS...ALBERTA

CITY           SKY/WX    TMP DP  RH WIND       PRES   REMARKS
EDMONTON       PTSUNNY   55  30  38 SW6       30.09S
CALGARY        PTSUNNY   61  21  21 NW10      30.15R
LETHBRIDGE     MOSUNNY   59  23  25 W15G21    30.17S
MEDICINE HAT   MOSUNNY   59  28  31 SW16      30.20F
$$

REGIONAL REPORTS...SASKATCHEWAN

CITY           SKY/WX    TMP DP  RH WIND       PRES   REMARKS
SWIFT CURRENT  SUNNY     52  30  43 SW10G20   30.23F
REGINA         SUNNY     52  32  46 NW7       30.30F
SASKATOON      MOSUNNY   43  34  70 S8        30.28S
$$



USA.gov is the U.S. government's official web portal to all federal, state and local government web resources and services.